Regional Weather Roundup
Issued by NWS

Home | Current Version | Previous Version | Graphics & Text | Print | Product List | Glossary On
Versions: 1 2 3 4 5 6 7 8 9 10 11 12 13 14 15 16 17 18 19 20 21 22 23 24 25 26 27 28 29 30 31 32 33 34 35 36 37 38 39 40 41 42 43 44 45 46 47 48 49 50
000
ASUS43 KLMK 160302
RWRKY
KENTUCKY REGIONAL WEATHER ROUNDUP
NATIONAL WEATHER SERVICE LOUISVILLE KY
1100 PM EDT TUE APR 15 2014

NOTE "FAIR" INDICATES FEW OR NO CLOUDS BELOW 12,000 FEET
WITH NO SIGNIFICANT WEATHER AND/OR OBSTRUCTIONS TO VISIBILITY.

KYZ001>023-026-027-061>063-070>075-160400-
WESTERN AND SOUTH CENTRAL KENTUCKY

CITY           SKY/WX    TMP DP  RH WIND       PRES   REMARKS
PADUCAH        CLEAR     39  26  59 E5        30.22R
HENDERSON      CLEAR     37  23  56 NE7       30.25R WCI  32
OWENSBORO      CLEAR     37  24  60 CALM      30.25S
HOPKINSVILLE   CLEAR     36  25  64 NE6       30.23S WCI  31
BOWLING GREEN  CLEAR     37  20  50 N3        30.24R
GLASGOW        NOT AVBL
$$

KYZ024-025-028>034-038-045-046-053-160400-
NORTH CENTRAL KENTUCKY

CITY           SKY/WX    TMP DP  RH WIND       PRES   REMARKS
LOUISVILLE/SDF CLEAR     37  20  50 NE6       30.25R WCI  32
LOUISVILLE/LOU CLEAR     38  20  48 N5        30.25R WCI  34
FORT KNOX      CLEAR     34  22  62 N6        30.22S WCI  28
$$

KYZ035>037-039>044-047>052-055>060-089>105-160400-
NORTHEAST KENTUCKY

CITY           SKY/WX    TMP DP  RH WIND       PRES   REMARKS
LEXINGTON      CLEAR     33  20  58 N8        30.23R WCI  26
COVINGTON      CLEAR     31  19  61 N6        30.24R WCI  25
FRANKFORT      CLEAR     33  20  58 N3        30.23R
$$

KYZ054-064>069-076>088-106>120-160400-
SOUTHEAST KENTUCKY

CITY           SKY/WX    TMP DP  RH WIND       PRES   REMARKS
JACKSON        PTCLDY    32  21  64 NE3       30.19R
LONDON         CLEAR     34  22  61 N5        30.20R WCI  30
SOMERSET       NOT AVBL
MIDDLESBORO    NOT AVBL
MONTICELLO     CLEAR     33  24  70 NE7       30.22R WCI  27
$$




USA.gov is the U.S. government's official web portal to all federal, state and local government web resources and services.